FW1369 Weather Reports


Display with metric or nautical units.
time (UTC)temp
F
wind
direction
speed
MPH
gust
MPH
rain 1hr
in
rain 24hr
in
rain mn
in
humidity
%
barometer
mb
20260504050547 51 297 0.0 2.0 0.00 0.00 0.00 56 1007.8
20260504045547 51 319 0.0 0.0 0.00 0.00 0.00 56 1007.9
20260504045043 52 319 0.0 0.0 0.00 0.00 0.00 56 1007.9
20260504044546 52 319 0.0 2.0 0.00 0.00 0.00 56 1007.9
20260504044041 52 319 0.0 3.0 0.00 0.00 0.00 56 1008.0
20260504043543 52 319 0.0 3.0 0.00 0.00 0.00 56 1008.0
20260504043041 52 318 0.0 2.0 0.00 0.00 0.00 56 1008.0
20260504042540 52 317 0.0 3.0 0.00 0.00 0.00 56 1008.0
20260504042039 53 317 0.0 7.0 0.00 0.00 0.00 56 1008.0
20260504041539 53 316 1.0 7.0 0.00 0.00 0.00 56 1008.0
20260504041041 53 294 1.0 8.0 0.00 0.00 0.00 56 1008.0
20260504040538 53 284 1.0 8.0 0.00 0.00 0.00 56 1008.0
20260504040044 53 186 2.0 10.0 0.00 0.00 0.00 55 1008.0
20260504035538 53 292 2.0 10.0 0.00 0.00 0.00 55 1007.9
20260504035037 53 299 2.0 8.0 0.00 0.00 0.00 55 1007.9
20260504034548 53 290 1.0 6.0 0.00 0.00 0.00 55 1007.8
20260504034040 53 299 0.0 6.0 0.00 0.00 0.00 56 1007.8
20260504033539 54 300 1.0 7.0 0.00 0.00 0.00 55 1007.9
20260504033037 54 276 1.0 5.0 0.00 0.00 0.00 55 1008.0
20260504032537 54 311 0.0 3.0 0.00 0.00 0.00 54 1007.9
20260504032040 54 311 0.0 5.0 0.00 0.00 0.00 54 1007.9
20260504031536 54 317 1.0 5.0 0.00 0.00 0.00 54 1007.9
20260504031035 54 332 1.0 9.0 0.00 0.00 0.00 54 1007.9
20260504030534 54 275 1.0 12.0 0.00 0.00 0.00 53 1007.9
20260504030034 54 315 2.0 12.0 0.00 0.00 0.00 53 1007.9
20260504025534 54 316 3.0 11.0 0.00 0.00 0.00 53 1007.9
20260504025034 54 307 2.0 11.0 0.00 0.00 0.00 54 1007.9
20260504024534 54 292 3.0 12.0 0.00 0.00 0.00 54 1008.0
20260504024034 54 307 3.0 12.0 0.00 0.00 0.00 54 1008.0
20260504023535 54 315 2.0 13.0 0.00 0.00 0.00 54 1008.0
20260504023033 54 306 5.0 13.0 0.00 0.00 0.00 54 1008.0
20260504022533 54 292 3.0 11.0 0.00 0.00 0.00 54 1008.1
20260504022035 54 25 3.0 12.0 0.00 0.00 0.00 54 1008.2
20260504021532 54 72 3.0 12.0 0.00 0.00 0.00 54 1008.3
20260504021032 54 275 2.0 11.0 0.00 0.00 0.00 54 1008.4
20260504020531 54 296 1.0 10.0 0.00 0.00 0.00 54 1008.4
20260504020031 54 296 2.0 10.0 0.00 0.00 0.00 54 1008.3
20260504015531 54 305 2.0 10.0 0.00 0.00 0.00 54 1008.3
20260504015031 54 305 1.0 10.0 0.00 0.00 0.00 54 1008.2
20260504014530 54 313 1.0 12.0 0.00 0.00 0.00 54 1008.2
20260504014030 54 261 1.0 12.0 0.00 0.00 0.00 54 1008.2
20260504013531 54 292 1.0 11.0 0.00 0.00 0.00 54 1008.4
20260504013040 54 286 4.0 13.0 0.00 0.00 0.00 54 1008.4
20260504012533 53 156 3.0 13.0 0.00 0.00 0.00 54 1008.4
20260504012030 53 298 2.0 11.0 0.00 0.00 0.00 55 1008.5
20260504011531 53 319 5.0 11.0 0.00 0.00 0.00 54 1008.6
20260504011030 54 323 2.0 9.0 0.00 0.00 0.00 55 1008.6
20260504010529 54 322 2.0 12.0 0.00 0.00 0.00 55 1008.6
20260504010029 54 290 2.0 12.0 0.00 0.00 0.00 55 1008.6
20260504005529 54 284 2.0 13.0 0.00 0.00 0.00 54 1008.6
20260504005029 54 294 4.0 14.0 0.00 0.00 0.00 54 1008.6
20260504004529 54 279 3.0 14.0 0.00 0.00 0.00 54 1008.8
20260504004028 54 300 4.0 21.0 0.00 0.00 0.00 54 1008.9
20260504003529 54 340 8.0 21.0 0.00 0.00 0.00 53 1008.8
20260504003029 54 14 6.0 12.0 0.00 0.00 0.00 52 1008.8
20260504002528 54 350 2.0 8.0 0.00 0.00 0.00 51 1008.7
20260504002028 54 263 3.0 8.0 0.00 0.00 0.00 51 1008.6
20260504001528 54 322 1.0 10.0 0.00 0.00 0.00 51 1008.5
20260504001028 54 325 3.0 16.0 0.00 0.00 0.00 51 1008.5
20260504000529 54 274 2.0 16.0 0.00 0.00 0.00 51 1008.4
20260504000027 54 311 3.0 15.0 0.00 0.00 0.00 51 1008.3
20260503235526 55 307 3.0 18.0 0.00 0.00 0.00 50 1008.3
20260503235026 55 293 4.0 18.0 0.00 0.00 0.00 50 1008.4
20260503234527 55 286 4.0 14.0 0.00 0.00 0.00 50 1008.5
20260503234027 55 292 4.0 12.0 0.00 0.00 0.00 49 1008.8
20260503233528 55 283 5.0 13.0 0.00 0.00 0.00 48 1008.6
20260503233030 55 311 4.0 15.0 0.00 0.00 0.00 49 1008.5
20260503232525 56 348 3.0 16.0 0.00 0.00 0.00 49 1008.4
20260503232025 56 313 5.0 18.0 0.00 0.00 0.00 48 1008.4
20260503231526 56 139 5.0 19.0 0.00 0.00 0.00 48 1008.4
20260503231026 56 278 4.0 19.0 0.00 0.00 0.00 47 1008.3
20260503230527 56 350 4.0 18.0 0.00 0.00 0.00 46 1008.3
20260503230025 56 257 4.0 18.0 0.00 0.00 0.00 46 1008.0
20260503225524 56 284 4.0 18.0 0.00 0.00 0.00 45 1008.2
20260503225024 57 360 5.0 16.0 0.00 0.00 0.00 43 1008.1
20260503224524 57 346 5.0 14.0 0.00 0.00 0.00 42 1008.1
20260503224026 57 217 5.0 14.0 0.00 0.00 0.00 44 1008.0
20260503223524 57 267 2.0 14.0 0.00 0.00 0.00 44 1008.0
20260503223023 57 292 1.0 14.0 0.00 0.00 0.00 45 1008.1
20260503222522 57 98 3.0 16.0 0.00 0.00 0.00 44 1008.1
20260503222022 57 311 2.0 16.0 0.00 0.00 0.00 44 1008.2
20260503221522 57 14 3.0 10.0 0.00 0.00 0.00 45 1008.0
20260503221022 57 279 1.0 9.0 0.00 0.00 0.00 44 1008.1
20260503220522 58 313 3.0 9.0 0.00 0.00 0.00 43 1008.1
20260503220022 58 261 3.0 9.0 0.00 0.00 0.00 44 1008.2
20260503215522 58 298 2.0 13.0 0.00 0.00 0.00 43 1008.2
20260503215025 58 360 4.0 13.0 0.00 0.00 0.00 42 1008.2
20260503214521 58 337 3.0 12.0 0.00 0.00 0.00 42 1008.1
20260503214022 59 338 5.0 12.0 0.00 0.00 0.00 42 1008.1
20260503213523 59 300 1.0 9.0 0.00 0.00 0.00 44 1008.1
20260503213021 59 304 1.0 9.0 0.00 0.00 0.00 42 1007.9
20260503212521 59 333 1.0 10.0 0.00 0.00 0.00 43 1008.0
20260503212021 59 360 2.0 10.0 0.00 0.00 0.00 43 1008.0
20260503211532 59 302 3.0 8.0 0.00 0.00 0.00 42 1008.1
20260503211020 59 312 3.0 8.0 0.00 0.00 0.00 41 1008.1
20260503210523 59 266 2.0 11.0 0.00 0.00 0.00 43 1008.0
20260503210020 59 159 5.0 11.0 0.00 0.00 0.00 41 1008.0
20260503205519 59 277 4.0 12.0 0.00 0.00 0.00 41 1008.1
20260503205018 59 334 2.0 12.0 0.00 0.00 0.00 42 1008.1
20260503204518 59 334 4.0 9.0 0.00 0.00 0.00 41 1008.2
20260503204016 59 263 3.0 9.0 0.00 0.00 0.00 41 1008.2
20260503203515 59 301 1.0 9.0 0.00 0.00 0.00 44 1008.4
20260503203016 59 290 2.0 8.0 0.00 0.00 0.00 44 1008.4
20260503202514 58 309 1.0 11.0 0.00 0.00 0.00 45 1008.4
20260503202012 58 297 2.0 11.0 0.00 0.00 0.00 44 1008.5
20260503201510 58 292 2.0 9.0 0.00 0.00 0.00 43 1008.6
20260503201010 57 300 2.0 10.0 0.00 0.00 0.00 42 1008.8
20260503200510 57 300 3.0 10.0 0.00 0.00 0.00 42 1008.9
20260503200009 57 333 1.0 12.0 0.00 0.00 0.00 42 1009.0
20260503195508 58 307 4.0 12.0 0.00 0.00 0.00 41 1009.0
20260503195011 58 311 3.0 9.0 0.00 0.00 0.00 44 1009.1
20260503194507 58 308 3.0 11.0 0.00 0.00 0.00 44 1009.1
20260503194006 57 303 2.0 11.0 0.00 0.00 0.00 44 1009.2
20260503193506 57 325 1.0 9.0 0.00 0.00 0.00 47 1009.3
20260503193005 57 315 2.0 9.0 0.00 0.00 0.00 43 1009.3
20260503192504 56 308 2.0 12.0 0.00 0.00 0.00 44 1009.5
20260503192004 56 293 5.0 12.0 0.00 0.00 0.00 43 1009.7
20260503191503 56 300 3.0 8.0 0.00 0.00 0.00 45 1009.8
20260503191003 56 181 2.0 12.0 0.00 0.00 0.00 44 1009.9
20260503190502 56 342 5.0 14.0 0.00 0.00 0.00 42 1009.9
20260503190001 56 327 5.0 14.0 0.00 0.00 0.00 42 1010.0
20260503185503 56 308 3.0 10.0 0.00 0.00 0.00 43 1009.9
20260503185000 56 290 2.0 12.0 0.00 0.00 0.00 43 1010.1
20260503184603 56 295 4.0 14.0 0.00 0.00 0.00 44 1010.2
20260503184059 56 292 3.0 14.0 0.00 0.00 0.00 45 1010.3
20260503183559 56 300 4.0 13.0 0.00 0.00 0.00 44 1010.4
20260503183110 55 309 5.0 13.0 0.00 0.00 0.00 43 1010.3
20260503182557 55 287 3.0 13.0 0.00 0.00 0.00 43 1010.4
20260503182057 55 304 3.0 14.0 0.00 0.00 0.00 44 1010.5
20260503181558 56 305 3.0 14.0 0.00 0.00 0.00 43 1010.6
20260503181057 56 138 5.0 14.0 0.00 0.00 0.00 44 1010.7
20260503180600 56 151 2.0 16.0 0.00 0.00 0.00 46 1010.6
20260503180100 56 299 3.0 16.0 0.00 0.00 0.00 43 1010.6
20260503175556 56 302 4.0 13.0 0.00 0.00 0.00 44 1010.6
20260503175055 55 296 3.0 13.0 0.00 0.00 0.00 44 1010.7
20260503174556 55 290 2.0 13.0 0.00 0.00 0.00 46 1010.8
20260503174057 56 316 2.0 13.0 0.00 0.00 0.00 43 1010.7
20260503173559 57 333 4.0 13.0 0.00 0.00 0.00 42 1010.8
20260503173112 57 298 4.0 11.0 0.00 0.00 0.00 46 1010.8
20260503172553 56 281 4.0 11.0 0.00 0.00 0.00 49 1010.8
20260503172056 56 290 4.0 11.0 0.00 0.00 0.00 47 1010.7
20260503171554 55 292 2.0 10.0 0.00 0.00 0.00 50 1010.7
20260503171051 54 297 4.0 13.0 0.00 0.00 0.00 47 1010.8
20260503170551 55 309 4.0 13.0 0.00 0.00 0.00 46 1010.9
20260503150530 52 271 1.0 8.0 0.00 0.00 0.00 54 1012.4
20260503131006 43 318 1.0 6.0 0.00 0.00 0.00 63 1013.2
20260503130507 43 316 2.0 6.0 0.00 0.00 0.00 63 1013.3
20260503110553 33 296 0.0 4.0 0.00 0.01 0.00 81 1013.0
20260503081540 35 291 0.0 0.0 0.00 0.01 0.00 75 1012.8
20260503081032 35 291 0.0 0.0 0.00 0.01 0.00 75 1012.8
20260503080532 35 291 0.0 0.0 0.00 0.01 0.00 75 1012.7
20260503072526 37 291 0.0 1.0 0.00 0.01 0.00 75 1012.7
20260503072024 37 291 0.0 1.0 0.00 0.01 0.00 75 1012.7
20260503071524 37 291 0.0 0.0 0.00 0.01 0.00 75 1012.7
20260503071022 37 291 0.0 2.0 0.00 0.01 0.00 75 1012.8
20260503070522 38 291 0.0 2.0 0.00 0.01 0.00 75 1012.7
20260503055012 39 288 0.0 4.0 0.00 0.01 0.00 75 1012.9
20260503054510 39 288 0.0 3.0 0.00 0.01 0.00 75 1012.9
20260503054010 39 288 0.0 3.0 0.00 0.01 0.00 75 1012.9
20260503053510 39 288 0.0 3.0 0.00 0.01 0.00 75 1013.0
20260503053010 39 285 0.0 5.0 0.00 0.01 0.00 75 1013.0